Torna al catalogo

CZ-6A DEB

AttivoPO
NORAD 60810·DEBRIS·🇨🇳 China

Lanciato Aug 6, 2024 da Taiyuan Satellite Launch Center

Loading…

Prossimi Passaggi (prossime 24 ore)

TLE

AggiornatoSource: Space-Track

Epoca: Sep 14, 2026, 12:55 UTC

1 60810U 24140GM  26257.53850344  .00000375  00000-0  21254-3 0  9992
2 60810  89.3681 299.5032 0117271 325.8606  33.5072 14.04913965107191

Traccia CZ-6A DEB in tempo reale con AllMySat

Download on the App Store